CAPE
0 0 0 0 0 0 0 0 0 0 9 43 143 315 458 716 688 494 230 121 119 90 222 485 531 548 613 730 803 736 695 657
0 0 0 0 0 0 0 0 25 7 0 95 184 287 357 730 826 692 477 364 276 203 142 434 700 755 802 847 850 950 1095 1024
0 0 0 0 0 0 0 0 0 0 233 106 2 5 383 505 731 754 651 534 407 366 264 319 654 840 1010 1008 1020 1057 1163 1283
0 0 0 0 0 0 0 0 0 0 0 145 20 3 199 224 555 811 775 632 519 530 417 312 485 671 1005 1224 1165 1121 1269 1235
0 0 0 0 0 0 0 0 0 0 0 11 2 229 215 473 632 609 733 752 696 591 549 496 407 481 549 1183 1157 1222 1390 1446
0 0 0 0 0 0 0 0 0 0 78 238 463 752 858 861 756 704 673 827 813 710 637 588 536 528 507 921 1163 1292 1382 1503
0 0 0 0 0 0 87 27 0 0 261 311 287 542 789 972 977 1012 963 1006 947 904 884 848 587 546 559 848 1048 1199 1300 1441
0 0 0 0 0 82 306 157 183 1 401 353 806 959 1121 1259 1318 1487 1655 1731 1756 1403 1134 1068 1085 801 607 601 962 1248 1296 1300
0 0 0 0 7 204 611 552 382 353 313 473 1030 1024 1225 1314 1409 1509 1718 1978 2208 1853 1828 1478 1414 1388 1257 975 840 1053 1269 1430
0 0 0 2 1 188 350 410 511 475 530 520 877 740 531 461 707 1297 1771 2357 2765 2677 2372 2354 2292 2100 2273 2180 1528 1225 1351 1531
0 0 2 53 55 89 77 451 264 284 445 478 488 691 496 86 180 685 1704 2327 2742 3030 3073 3086 2727 2443 2548 2443 2362 2148 1905 1986
0 0 0 14 225 308 272 231 142 144 94 463 380 522 172 3 201 363 464 2056 2046 2768 3317 3326 3430 3217 2906 2666 3033 3048 2861 2744
0 0 0 81 159 175 21 33 97 172 19 59 112 19 3 11 5 159 373 650 2594 2575 2367 3285 3517 3407 3317 3388 3324 3189 2988 2752
0 0 0 12 94 203 6 9 284 207 30 16 35 0 0 0 0 0 60 271 979 2345 2524 3331 3390 3402 3320 3167 2856 2625 2445 2332
0 0 4 0 0 0 1 0 24 69 57 11 0 0 0 0 0 0 0 17 262 2588 2395 2603 3013 2973 3142 2892 2716 2611 2357 1896
0 0 0 0 0 4 2 0 1 100 135 4 54 119 160 8 96 129 132 282 665 2721 2366 1826 2071 2420 2482 2629 2426 2238 1994 1676
0 0 0 0 4 63 1 10 12 2 6 35 56 23 32 139 56 148 25 1710 2838 2388 2166 1965 1742 1747 2056 2252 2199 1955 1768 1587
0 0 22 30 88 14 2 0 1 32 0 13 13 3 0 0 0 79 528 2119 2677 2656 2527 1842 1712 1760 1848 2161 2086 1859 1670 1518
1 8 12 27 71 95 80 43 0 22 14 32 14 0 0 0 0 0 621 1418 2637 2692 2474 2073 1730 1684 1792 1870 2130 1727 1503 1414
CIN
0 0 0 0 0 0 0 0 0 0 -118 -88 -91 -108 -88 -107 -140 -177 -240 -278 -252 -283 -250 -244 -259 -247 -222 -221 -202 -199 -197 -211
0 0 0 0 0 0 0 0 -33 -23 0 -53 -53 -55 -126 -85 -102 -144 -184 -190 -207 -229 -292 -258 -243 -236 -225 -219 -210 -192 -186 -197
0 0 0 0 0 0 0 0 0 0 -22 -187 -29 -122 -63 -94 -102 -157 -197 -186 -228 -238 -262 -252 -239 -245 -224 -230 -231 -208 -206 -193
0 0 0 0 0 0 0 0 0 0 0 -169 -148 -172 -94 -109 -83 -135 -173 -189 -233 -221 -221 -238 -230 -236 -247 -218 -233 -214 -203 -220
0 0 0 0 0 0 0 0 0 0 0 -178 -11 -247 -203 -105 -72 -116 -129 -138 -160 -205 -206 -205 -259 -246 -246 -233 -220 -227 -219 -217
0 0 0 0 0 0 0 0 0 0 -54 -94 -83 -53 -55 -55 -70 -79 -106 -134 -137 -147 -149 -194 -212 -254 -242 -227 -227 -244 -233 -227
0 0 0 0 0 0 -165 -149 0 0 -58 -75 -69 -64 -71 -93 -85 -88 -89 -93 -109 -127 -133 -140 -186 -221 -248 -212 -230 -244 -227 -238
0 0 0 0 0 -167 -178 -166 -122 -2 -46 -152 -110 -110 -86 -94 -111 -88 -90 -93 -96 -109 -105 -112 -113 -161 -214 -226 -220 -273 -243 -226
0 0 0 0 -189 -175 -166 -278 -271 -112 -335 -306 -120 -91 -127 -140 -122 -122 -123 -110 -104 -108 -98 -99 -109 -107 -158 -187 -238 -261 -238 -251
0 0 0 -93 -17 -212 -214 -300 -362 -340 -410 -441 -225 -260 -289 -369 -259 -113 -111 -101 -99 -104 -122 -129 -128 -136 -153 -175 -225 -231 -240 -259
0 0 -90 -134 -229 -231 -225 -207 -467 -490 -382 -410 -332 -152 -214 -526 -535 -312 -84 -71 -77 -97 -119 -127 -117 -113 -119 -124 -134 -182 -203 -242
0 0 0 -113 -211 -284 -271 -154 -454 -540 -459 -320 -290 -126 -328 -33 -443 -390 -317 -57 -81 -111 -101 -90 -131 -132 -124 -138 -145 -157 -168 -167
0 0 0 -161 -208 -236 -110 -131 -484 -449 -546 -371 -316 -303 -317 -477 -251 -326 -337 -343 -58 -83 -102 -120 -121 -120 -108 -99 -96 -133 -147 -158
0 0 0 -213 -150 -49 -83 -406 -340 -354 -458 -470 -393 -105 0 0 0 0 -202 -303 -251 -64 -92 -133 -121 -100 -100 -106 -168 -173 -171 -175
0 0 -52 0 0 0 -105 0 -281 -249 -349 -451 0 0 0 0 0 0 0 -186 -272 -61 -98 -156 -129 -126 -104 -121 -127 -138 -151 -184
0 0 0 0 0 -117 -270 0 -58 -157 -220 -39 -220 -251 -249 -71 -270 -272 -305 -168 -269 -78 -89 -135 -175 -162 -138 -114 -130 -143 -149 -174
0 0 0 0 -93 -186 -149 -257 -213 -107 -183 -205 -179 -153 -179 -100 -97 -119 -234 -49 -53 -60 -84 -117 -187 -190 -167 -110 -108 -130 -141 -146
0 0 -79 -112 -130 -169 -58 0 -49 -92 0 -137 -187 -89 0 0 0 -80 -32 -30 -47 -50 -79 -116 -154 -172 -167 -95 -83 -96 -110 -130
-42 -77 -85 -94 -112 -124 -159 -138 0 -131 -114 -93 -97 0 0 0 0 0 -36 -40 -32 -29 -50 -96 -123 -125 -136 -124 -80 -93 -109 -129
Wind_Speed
25 25 6 16 20 15 19 19 22 17 16 10 12 13 19 18 20 24 28 27 27 27 26 23 22 23 26 26 26 26 25 24
21 19 14 14 16 21 19 19 18 15 18 11 12 15 16 15 18 22 27 30 28 28 24 24 23 23 24 25 25 24 24 23
20 19 20 23 22 20 19 16 19 22 17 6 9 6 25 25 17 20 27 28 26 25 26 24 24 22 22 23 23 22 22 20
23 22 20 22 25 25 22 22 18 21 23 1 5 6 26 26 17 18 23 23 24 23 24 22 24 23 23 24 24 24 23 20
26 23 25 25 28 27 22 19 22 21 22 6 8 10 25 22 13 14 16 18 19 21 21 22 21 22 22 23 25 25 23 23
22 22 24 25 27 27 20 20 21 21 13 4 3 6 10 9 9 8 10 12 14 18 20 19 19 21 21 22 23 22 21 21
18 19 18 18 23 23 21 20 21 21 5 4 3 3 4 6 9 10 10 7 7 12 15 16 15 15 20 22 22 20 18 17
22 21 20 18 21 21 23 24 19 15 11 14 5 1 4 6 7 7 8 10 12 9 2 11 16 17 18 22 20 13 14 17
23 22 21 20 19 17 18 22 17 12 14 20 12 6 7 6 8 8 10 12 13 13 13 4 8 13 15 18 18 14 13 11
19 23 25 15 18 14 14 19 17 14 17 18 11 4 9 14 13 10 11 12 14 15 14 13 12 2 5 3 8 12 12 12
17 19 22 19 23 23 22 21 20 17 15 14 16 6 12 14 17 17 12 14 15 16 17 19 18 14 7 7 6 7 8 8
15 20 18 21 26 26 22 26 23 20 16 16 13 11 18 23 19 19 20 17 17 19 20 21 21 17 15 11 7 7 6 6
15 14 21 24 27 26 25 28 26 22 22 18 18 17 21 23 21 21 21 23 19 21 21 21 21 17 14 11 10 11 11 12
17 15 20 24 24 22 17 23 22 20 22 24 18 15 21 25 27 25 25 26 27 22 24 24 22 18 16 14 15 15 15 14
13 14 18 25 21 18 18 22 19 16 19 23 21 23 19 25 27 29 27 36 34 28 22 23 22 19 16 16 15 14 14 15
17 15 12 16 19 14 16 18 18 15 15 19 16 13 15 13 10 12 11 14 24 11 18 21 20 19 17 16 14 14 13 12
14 11 18 17 14 9 12 21 17 5 14 19 20 23 14 9 16 18 13 4 6 10 15 17 18 19 17 16 13 12 11 9
13 14 10 16 13 15 15 13 13 15 24 22 15 29 31 19 17 16 18 9 9 12 15 15 17 16 16 15 12 11 10 10
10 9 9 9 5 21 17 26 26 25 25 24 25 24 22 22 22 22 14 9 7 9 11 11 14 14 13 13 12 10 11 12
Wind_Direction
300 282 313 299 295 312 312 330 310 334 323 346 323 307 132 139 148 160 165 164 166 164 163 159 161 163 166 166 168 168 169 166
312 327 299 309 328 299 301 307 315 326 315 323 325 292 275 116 139 157 161 166 165 165 160 162 162 166 168 170 170 170 170 170
310 313 307 294 299 313 301 306 303 305 309 6 35 46 215 186 128 140 158 163 163 162 163 161 162 162 167 170 173 173 173 171
296 309 333 317 304 300 293 285 301 306 306 225 335 82 186 212 134 135 151 156 161 160 162 159 164 163 166 171 174 178 177 173
291 295 303 314 316 313 295 294 286 298 306 292 341 64 190 166 122 120 139 151 157 159 157 163 162 166 166 170 178 179 177 177
297 297 299 309 317 322 309 289 292 294 300 303 324 80 88 90 86 69 107 130 145 159 164 164 163 165 170 175 178 177 175 177
310 304 311 320 323 329 330 305 291 299 259 211 155 97 68 32 30 29 32 17 112 162 170 173 172 172 174 177 178 177 177 178
306 304 306 312 328 325 328 317 308 302 266 263 228 111 43 11 10 3 353 348 337 335 122 182 181 181 183 185 184 180 184 187
304 309 305 300 317 332 336 329 317 298 282 268 262 267 315 339 346 343 337 335 337 345 323 344 168 176 185 192 190 191 193 199
315 311 296 299 310 321 330 329 326 303 287 279 277 303 319 322 316 327 331 333 333 331 333 327 319 226 306 285 198 199 204 207
322 310 299 300 295 298 294 297 306 304 299 284 265 290 298 316 306 304 337 329 330 329 325 316 313 317 295 281 242 219 213 222
334 310 306 302 294 290 288 278 299 290 306 290 277 271 278 290 299 306 313 325 331 342 335 322 317 316 313 305 284 268 271 280
332 324 309 305 294 289 279 280 289 289 285 290 283 285 286 292 300 315 309 306 333 324 321 319 319 328 330 319 307 300 300 302
338 329 316 305 296 289 284 293 294 293 286 287 286 288 291 295 286 289 299 293 305 313 314 323 320 330 335 327 309 300 301 304
347 345 329 301 302 303 298 292 300 298 301 297 291 290 283 289 297 289 302 281 268 271 326 328 326 332 330 324 321 318 310 306
349 348 345 333 311 317 310 297 291 296 312 308 301 297 295 299 303 307 311 287 216 328 331 328 334 336 331 328 329 328 323 317
356 344 335 337 335 331 325 274 279 333 317 303 299 290 308 307 306 302 321 168 330 335 333 330 332 335 332 326 333 335 340 342
16 12 5 343 321 277 295 327 301 330 296 262 225 255 256 311 328 324 319 335 319 330 330 333 333 334 338 332 333 331 331 330
32 63 75 80 83 195 195 250 267 290 284 262 266 275 299 301 307 316 323 347 328 333 333 337 334 331 333 335 330 329 326 321